パンスターズ彗星

C/2022 N2 ( PanSTARRS )

English version
Home page
Updated on September 11, 2022

---------------------------------------------------------------------

・ プロフィール

発見日 2022年7月4日
発見光度 20.6等
発見者 Pan-STARRS 2 telescope (Haleakala)

・ 軌道要素

Epoch 2022 Aug. 9.0 TT = JDT 2459800.5
T 2025 July 31.49396 TT                                 Rudenko
q   3.8271065            (2000.0)            P               Q
z  -0.0010798      Peri.   75.33495     +0.81551775     -0.57540614
 +/-0.0021552      Node   319.74035     +0.48722089     +0.74039403
e   1.0041326      Incl.    5.50140     +0.31232453     +0.34745425
From 35 observations 2022 June 2-Aug. 1, mean residual 0".2.

・ 星図

・ 光度変化

        m1 = 6.0 + 5 logΔ + 10.0 log r

---------------------------------------------------------------------

軌道要素はM.P.E.C. 2022-Q139に掲載されたものです。
星図はステラナビゲータ Ver.10 (アストロアーツ) で作成したものです。
光度グラフはComet for Windowsで作成したものです。

---------------------------------------------------------------------

Copyright(C) Seiichi Yoshida (comet@aerith.net). All rights reserved.